Weather History for Buffalo, SD

Change the Weather History Date:

Wednesday, September 10, 2014

  Actual Average Record
Temperature  
Mean Temperature 39 °F 61 °F  
Max Temperature 41 °F 76 °F 96 °F (2012)
Min Temperature 36 °F 47 °F 36 °F (2014)
Degree Days  
Heating Degree Days 26 6  
Month to date heating degree days 69 44  
Since 1 July heating degree days 120 96  
Cooling Degree Days 0 2  
Month to date cooling degree days 9 28  
Year to date cooling degree days 374 499  
Moisture  
Dew Point 35 °F    
Average Humidity 83    
Maximum Humidity 93    
Minimum Humidity 73    
Precipitation  
Precipitation 0.20 in 0.04 in 2.29 in (2003)
Month to date precipitation 0.30 0.43  
Year to date precipitation 14.67 12.57  
Sea Level Pressure  
Sea Level Pressure 30.20 in    
Wind  
Wind Speed 14 mph (NE)    
Max Wind Speed 21 mph    
Max Gust Speed 24 mph    
T = Trace of Precipitation, MM = Missing Value Source: NWS Daily Summary

Daily Weather History Graph

Daily Weather History Graph

Search for Another Location

Airport:

Trip Planner

Search our weather history database for the weather conditions in past years. The results will help you decide how hot, cold, wet, or windy it might be!

Date:

Astronomy

Sep. 10, 2014 Rise Set
Actual Time 6:26 AM MDT 7:14 PM MDT
Civil Twilight 5:56 AM MDT 7:44 PM MDT
Nautical Twilight 5:20 AM MDT 8:20 PM MDT
Astronomical Twilight 4:43 AM MDT 8:57 PM MDT
Moon 8:06 PM MDT (9/10) 8:23 AM MDT (9/10)
Length of Visible Light 13h 48m
Length of Day
12h 48m
Waning Gibbous, 96% of the Moon is Illuminated
Sep 10
Waning Gibbous
Sep 15
Last Quarter
Sep 24
New
Oct 1
First Quarter
Oct 8
Full

Hourly Weather History & Observations

Time (MDT) Temp. Windchill Dew Point Humidity Pressure Visibility Wind Dir Wind Speed Gust Speed Precip Events Conditions
12:56 AM 41.0 °F 32.2 °F 39.9 °F 96% 30.09 in - NE 18.4 mph 26.5 mph N/A   Unknown
1:56 AM 39.0 °F 29.0 °F 37.9 °F 96% 30.10 in - NE 20.7 mph - N/A   Unknown
2:56 AM 37.9 °F 28.9 °F 36.0 °F 93% 30.12 in - NE 16.1 mph - N/A   Unknown
3:56 AM 37.9 °F 29.6 °F 36.0 °F 93% 30.13 in - NE 13.8 mph - N/A   Unknown
4:56 AM 37.9 °F 29.6 °F 35.1 °F 89% 30.14 in - NE 13.8 mph - N/A   Unknown
5:56 AM 37.0 °F 27.7 °F 35.1 °F 93% 30.14 in - NE 16.1 mph - N/A   Unknown
6:56 AM 37.0 °F 28.9 °F 34.0 °F 89% 30.17 in - NE 12.7 mph - N/A   Unknown
7:56 AM 37.9 °F 28.9 °F 35.1 °F 89% 30.18 in - NE 16.1 mph - N/A   Unknown
8:56 AM 39.0 °F 32.3 °F 35.1 °F 86% 30.18 in - NE 10.4 mph - N/A   Unknown
9:56 AM 39.0 °F 31.4 °F 35.1 °F 86% 30.18 in - ENE 12.7 mph - N/A   Unknown
11:56 AM 41.0 °F 33.9 °F 34.0 °F 76% 30.17 in - East 12.7 mph - N/A   Unknown
12:56 PM 41.0 °F 34.3 °F 36.0 °F 82% 30.17 in - ENE 11.5 mph - 0.01 in   Unknown
1:56 PM 39.0 °F 33.4 °F 36.0 °F 89% 30.19 in - NE 8.1 mph - 0.05 in   Unknown
2:56 PM 37.9 °F 30.9 °F 35.1 °F 89% 30.20 in - NE 10.4 mph - 0.08 in   Unknown
3:56 PM 39.0 °F 31.4 °F 36.0 °F 89% 30.21 in - NNE 12.7 mph - 0.04 in   Unknown
4:56 PM 39.0 °F 31.0 °F 35.1 °F 86% 30.22 in - NNE 13.8 mph - 0.01 in   Unknown
5:56 PM 37.9 °F 28.5 °F 35.1 °F 89% 30.25 in - NNE 17.3 mph - 0.01 in   Unknown
6:56 PM 37.0 °F 27.0 °F 34.0 °F 89% 30.27 in - NE 18.4 mph - N/A   Unknown
7:56 PM 36.0 °F 26.0 °F 34.0 °F 93% 30.28 in - ENE 17.3 mph - N/A   Unknown
8:56 PM 37.0 °F 29.3 °F 34.0 °F 89% 30.31 in - NE 11.5 mph - N/A   Unknown
9:56 PM 37.0 °F 28.5 °F 34.0 °F 89% 30.31 in - NE 13.8 mph - N/A   Unknown
11:56 PM 36.0 °F 27.5 °F 34.0 °F 93% 30.34 in - NE 12.7 mph - N/A   Unknown